Tracking 32140 objects as of 13-Nov-2025
HD Live streaming from Space Station
objects crossing your sky now

STARLINK-30462

Track STARLINK-30462 now!
10-day predictions
STARLINK-30462 is classified as:


NORAD ID: 57902
Int'l Code: 2023-146M
Perigee: 565.0 km
Apogee: 567.2 km
Inclination: 43.0 °
Period: 95.8 minutes
Semi major axis: 6937 km
RCS: Unknown
Launch date: September 20, 2023
Source: United States (US)
Launch site: AIR FORCE EASTERN TEST RANGE (AFETR)
Your satellite tracking list
Your tracking list is empty




NASA's NSSDC Master Catalog

Two Line Element Set (TLE):
1 57902U 23146M   25317.12675531 -.00002703  00000-0 -18494-3 0  9990
2 57902  43.0009 226.5914 0001553 265.7153  94.3512 15.02571896119495
Source of the keplerian elements: AFSPC